Voltar ao catálogo

STARLINK-36734

AtivoComunicaçõesVLEO
NORAD 67988·PAYLOAD·🇺🇸 United States

Lançado Feb 27, 2026 de Vandenberg Space Force Base

Loading…

Próximas Passagens (próximas 24 horas)

TLE

AtualizadoSource: CelesTrak SupGP

Época: Sep 14, 2026, 20:56 UTC

1 67988C 26039C   26257.87270833  .00050855  00000+0  18422-2 0  2576
2 67988  43.0013  60.8377 0001418 272.6409  72.0205 15.27548916    11

Acompanhe STARLINK-36734 em tempo real com AllMySat

Download on the App Store